Time,TemperatureF,DewpointF,PressureIn,WindDirection,WindDirectionDegrees,WindSpeedMPH,WindSpeedGustMPH,Humidity,HourlyPrecipIn,Conditions,Clouds,dailyrainin,SoftwareType,DateUTC
2013-03-27 00:03:00,37.0,22.0,29.77,West,276,8.0,14.0,54,0.00,,,0.00,,2013-03-27 04:03:00,
2013-03-27 00:13:00,37.0,22.0,29.77,West,276,8.0,14.0,54,0.00,,,0.00,,2013-03-27 04:13:00,
2013-03-27 00:23:00,37.0,21.0,29.77,West,260,5.0,12.0,53,0.00,,,0.00,,2013-03-27 04:23:00,
2013-03-27 00:33:00,38.0,22.0,29.77,West,272,7.0,17.0,51,0.00,,,0.00,,2013-03-27 04:33:00,
2013-03-27 00:42:00,38.0,22.0,29.77,West,272,7.0,17.0,51,0.00,,,0.00,,2013-03-27 04:42:00,
2013-03-27 00:53:00,37.0,21.0,29.77,WNW,295,6.0,15.0,53,0.00,,,0.00,,2013-03-27 04:53:00,
2013-03-27 01:02:00,37.0,22.0,29.77,West,262,13.0,21.0,55,0.00,,,0.00,,2013-03-27 05:02:00,
2013-03-27 01:12:00,37.0,22.0,29.77,West,262,13.0,21.0,55,0.00,,,0.00,,2013-03-27 05:12:00,
2013-03-27 01:23:00,36.0,23.0,29.77,WSW,254,10.0,18.0,58,0.00,,,0.00,,2013-03-27 05:23:00,
2013-03-27 01:33:00,35.0,23.0,29.77,WNW,294,11.0,19.0,60,0.00,,,0.00,,2013-03-27 05:33:00,
2013-03-27 01:42:00,35.0,23.0,29.77,WNW,294,11.0,19.0,60,0.00,,,0.00,,2013-03-27 05:42:00,
2013-03-27 01:53:00,35.0,23.0,29.77,WSW,246,13.0,19.0,62,0.00,,,0.00,,2013-03-27 05:53:00,
2013-03-27 02:02:00,35.0,24.0,29.77,West,263,12.0,22.0,64,0.00,,,0.00,,2013-03-27 06:02:00,
2013-03-27 02:12:00,35.0,24.0,29.77,West,263,12.0,22.0,64,0.00,,,0.00,,2013-03-27 06:12:00,
2013-03-27 02:22:00,36.0,25.0,29.77,West,277,12.0,20.0,65,0.00,,,0.00,,2013-03-27 06:22:00,
2013-03-27 02:32:00,36.0,25.0,29.76,SW,229,11.0,23.0,65,0.00,,,0.00,,2013-03-27 06:32:00,
2013-03-27 02:42:00,36.0,25.0,29.76,SW,229,11.0,23.0,65,0.00,,,0.00,,2013-03-27 06:42:00,
2013-03-27 02:53:00,36.0,26.0,29.76,West,260,10.0,25.0,66,0.00,,,0.00,,2013-03-27 06:53:00,
2013-03-27 03:02:00,36.0,26.0,29.75,West,276,12.0,28.0,67,0.00,,,0.00,,2013-03-27 07:02:00,
2013-03-27 03:12:00,36.0,26.0,29.75,West,276,12.0,28.0,67,0.00,,,0.00,,2013-03-27 07:12:00,
2013-03-27 03:22:00,36.0,26.0,29.75,WSW,240,16.0,25.0,68,0.00,,,0.00,,2013-03-27 07:22:00,
2013-03-27 03:32:00,36.0,26.0,29.75,West,269,15.0,24.0,68,0.00,,,0.00,,2013-03-27 07:32:00,
2013-03-27 03:42:00,36.0,26.0,29.75,West,269,15.0,24.0,68,0.00,,,0.00,,2013-03-27 07:42:00,
2013-03-27 03:53:00,37.0,27.0,29.75,WSW,252,14.0,25.0,68,0.00,,,0.00,,2013-03-27 07:53:00,
2013-03-27 04:02:00,37.0,27.0,29.75,West,263,16.0,25.0,67,0.00,,,0.00,,2013-03-27 08:02:00,
2013-03-27 04:13:00,37.0,27.0,29.75,West,263,16.0,25.0,67,0.00,,,0.00,,2013-03-27 08:13:00,
2013-03-27 04:22:00,37.0,27.0,29.75,WSW,256,14.0,24.0,67,0.00,,,0.00,,2013-03-27 08:22:00,
2013-03-27 04:32:00,37.0,28.0,29.74,West,278,17.0,23.0,69,0.00,,,0.00,,2013-03-27 08:32:00,
2013-03-27 04:43:00,37.0,28.0,29.74,West,278,17.0,23.0,69,0.00,,,0.00,,2013-03-27 08:43:00,
2013-03-27 04:52:00,37.0,28.0,29.74,WSW,249,13.0,26.0,69,0.00,,,0.00,,2013-03-27 08:52:00,
2013-03-27 05:02:00,37.0,27.0,29.75,WNW,292,14.0,25.0,68,0.00,,,0.00,,2013-03-27 09:02:00,
2013-03-27 05:12:00,37.0,27.0,29.75,WNW,292,14.0,25.0,68,0.00,,,0.00,,2013-03-27 09:12:00,
2013-03-27 05:22:00,37.0,27.0,29.75,West,265,15.0,24.0,68,0.00,,,0.00,,2013-03-27 09:22:00,
2013-03-27 05:33:00,37.0,27.0,29.75,WSW,257,16.0,24.0,68,0.00,,,0.00,,2013-03-27 09:33:00,
2013-03-27 05:42:00,37.0,27.0,29.75,WSW,257,16.0,24.0,68,0.00,,,0.00,,2013-03-27 09:42:00,
2013-03-27 05:52:00,37.0,27.0,29.75,West,265,12.0,31.0,68,0.00,,,0.00,,2013-03-27 09:52:00,
2013-03-27 06:02:00,36.0,26.0,29.75,West,264,15.0,26.0,68,0.00,,,0.00,,2013-03-27 10:02:00,
2013-03-27 06:12:00,36.0,26.0,29.75,West,264,15.0,26.0,68,0.00,,,0.00,,2013-03-27 10:12:00,
2013-03-27 06:23:00,36.0,26.0,29.75,WSW,252,18.0,31.0,68,0.00,,,0.00,,2013-03-27 10:23:00,
2013-03-27 06:32:00,36.0,27.0,29.75,West,271,18.0,34.0,69,0.00,,,0.00,,2013-03-27 10:32:00,
2013-03-27 06:42:00,36.0,27.0,29.75,West,271,18.0,34.0,69,0.00,,,0.00,,2013-03-27 10:42:00,
2013-03-27 06:53:00,36.0,27.0,29.76,West,263,17.0,27.0,70,0.00,,,0.00,,2013-03-27 10:53:00,
2013-03-27 07:02:00,35.0,27.0,29.75,West,263,18.0,27.0,71,0.00,,,0.00,,2013-03-27 11:02:00,
2013-03-27 07:12:00,35.0,27.0,29.75,West,263,18.0,27.0,71,0.00,,,0.00,,2013-03-27 11:12:00,
2013-03-27 07:22:00,35.0,27.0,29.76,West,271,15.0,33.0,71,0.00,,,0.00,,2013-03-27 11:22:00,
2013-03-27 07:32:00,36.0,28.0,29.77,West,271,18.0,31.0,71,0.00,,,0.00,,2013-03-27 11:32:00,
2013-03-27 07:42:00,36.0,28.0,29.77,West,271,18.0,31.0,71,0.00,,,0.00,,2013-03-27 11:42:00,
2013-03-27 07:53:00,36.0,28.0,29.77,WSW,258,18.0,27.0,71,0.00,,,0.00,,2013-03-27 11:53:00,
2013-03-27 08:02:00,36.0,28.0,29.77,West,264,14.0,24.0,71,0.00,,,0.00,,2013-03-27 12:02:00,
2013-03-27 08:12:00,36.0,28.0,29.77,West,264,14.0,24.0,71,0.00,,,0.00,,2013-03-27 12:12:00,
2013-03-27 08:23:00,36.0,28.0,29.78,West,259,15.0,31.0,71,0.00,,,0.00,,2013-03-27 12:23:00,
2013-03-27 08:32:00,36.0,28.0,29.78,West,265,18.0,28.0,71,0.00,,,0.00,,2013-03-27 12:32:00,
2013-03-27 08:43:00,36.0,28.0,29.78,West,265,18.0,28.0,71,0.00,,,0.00,,2013-03-27 12:43:00,
2013-03-27 08:52:00,36.0,28.0,29.78,WSW,254,17.0,30.0,71,0.00,,,0.00,,2013-03-27 12:52:00,
2013-03-27 09:02:00,37.0,28.0,29.78,West,259,16.0,32.0,71,0.00,,,0.00,,2013-03-27 13:02:00,
2013-03-27 09:12:00,37.0,28.0,29.78,West,259,16.0,32.0,71,0.00,,,0.00,,2013-03-27 13:12:00,
2013-03-27 09:22:00,37.0,28.0,29.78,WSW,253,11.0,27.0,70,0.00,,,0.00,,2013-03-27 13:22:00,
2013-03-27 09:32:00,37.0,28.0,29.78,West,267,13.0,26.0,69,0.00,,,0.00,,2013-03-27 13:32:00,
2013-03-27 09:42:00,37.0,28.0,29.78,West,267,13.0,26.0,69,0.00,,,0.00,,2013-03-27 13:42:00,
2013-03-27 09:53:00,38.0,28.0,29.78,West,263,9.0,27.0,68,0.00,,,0.00,,2013-03-27 13:53:00,
2013-03-27 10:02:00,39.0,29.0,29.78,West,275,8.0,29.0,66,0.00,,,0.00,,2013-03-27 14:02:00,
2013-03-27 10:12:00,39.0,29.0,29.78,West,275,8.0,29.0,66,0.00,,,0.00,,2013-03-27 14:12:00,
2013-03-27 10:22:00,40.0,29.0,29.80,WSW,254,8.0,14.0,65,0.00,,,0.00,,2013-03-27 14:22:00,
2013-03-27 10:32:00,40.0,29.0,29.80,West,275,2.0,18.0,64,0.00,,,0.00,,2013-03-27 14:32:00,
2013-03-27 10:42:00,40.0,29.0,29.80,West,275,2.0,18.0,64,0.00,,,0.00,,2013-03-27 14:42:00,
2013-03-27 10:52:00,41.0,30.0,29.80,NNE,19,4.0,21.0,64,0.00,,,0.00,,2013-03-27 14:52:00,
2013-03-27 11:02:00,42.0,30.0,29.79,West,259,8.0,22.0,62,0.00,,,0.00,,2013-03-27 15:02:00,
2013-03-27 11:12:00,42.0,30.0,29.79,West,259,8.0,22.0,62,0.00,,,0.00,,2013-03-27 15:12:00,
2013-03-27 11:22:00,42.0,30.0,29.79,WNW,284,6.0,17.0,63,0.00,,,0.00,,2013-03-27 15:22:00,
2013-03-27 11:33:00,42.0,30.0,29.79,West,261,7.0,18.0,62,0.00,,,0.00,,2013-03-27 15:33:00,
2013-03-27 11:42:00,42.0,30.0,29.79,West,261,7.0,18.0,62,0.00,,,0.00,,2013-03-27 15:42:00,
2013-03-27 11:53:00,42.0,30.0,29.79,West,278,10.0,19.0,61,0.00,,,0.00,,2013-03-27 15:53:00,
2013-03-27 12:03:00,43.0,29.0,29.79,NNW,346,7.0,22.0,58,0.00,,,0.00,,2013-03-27 16:03:00,
2013-03-27 12:13:00,43.0,29.0,29.79,NNW,346,7.0,22.0,58,0.00,,,0.00,,2013-03-27 16:13:00,
2013-03-27 12:22:00,43.0,30.0,29.79,WSW,248,10.0,21.0,59,0.00,,,0.00,,2013-03-27 16:22:00,
2013-03-27 12:32:00,44.0,30.0,29.80,West,280,10.0,19.0,57,0.00,,,0.00,,2013-03-27 16:32:00,
2013-03-27 12:42:00,44.0,30.0,29.80,West,280,10.0,19.0,57,0.00,,,0.00,,2013-03-27 16:42:00,
2013-03-27 12:52:00,44.0,30.0,29.79,West,267,10.0,18.0,57,0.00,,,0.00,,2013-03-27 16:52:00,
2013-03-27 13:03:00,45.0,30.0,29.79,SW,225,7.0,19.0,55,0.00,,,0.00,,2013-03-27 17:03:00,
2013-03-27 13:12:00,45.0,30.0,29.79,SW,225,7.0,19.0,55,0.00,,,0.00,,2013-03-27 17:12:00,
2013-03-27 13:22:00,45.0,30.0,29.79,West,261,13.0,20.0,56,0.00,,,0.00,,2013-03-27 17:22:00,
2013-03-27 13:32:00,46.0,31.0,29.79,WNW,288,5.0,18.0,55,0.00,,,0.00,,2013-03-27 17:32:00,
2013-03-27 13:44:00,46.0,31.0,29.79,WNW,288,5.0,18.0,55,0.00,,,0.00,,2013-03-27 17:44:00,
2013-03-27 13:52:00,46.0,30.0,29.78,West,264,7.0,16.0,53,0.00,,,0.00,,2013-03-27 17:52:00,
2013-03-27 14:02:00,47.0,30.0,29.78,NW,325,5.0,15.0,51,0.00,,,0.00,,2013-03-27 18:02:00,
2013-03-27 14:12:00,47.0,30.0,29.78,NW,325,5.0,15.0,51,0.00,,,0.00,,2013-03-27 18:12:00,
2013-03-27 14:23:00,47.0,30.0,29.78,West,267,8.0,18.0,51,0.00,,,0.00,,2013-03-27 18:23:00,
2013-03-27 14:32:00,48.0,30.0,29.78,NW,317,4.0,13.0,50,0.00,,,0.00,,2013-03-27 18:32:00,
2013-03-27 14:42:00,48.0,30.0,29.78,NW,317,4.0,13.0,50,0.00,,,0.00,,2013-03-27 18:42:00,
2013-03-27 14:53:00,48.0,30.0,29.78,West,259,6.0,16.0,50,0.00,,,0.00,,2013-03-27 18:53:00,
2013-03-27 15:02:00,48.0,30.0,29.78,West,272,7.0,16.0,49,0.00,,,0.00,,2013-03-27 19:02:00,
2013-03-27 15:12:00,48.0,30.0,29.78,West,272,7.0,16.0,49,0.00,,,0.00,,2013-03-27 19:12:00,
2013-03-27 15:22:00,48.0,30.0,29.77,WSW,252,6.0,14.0,49,0.00,,,0.00,,2013-03-27 19:22:00,
2013-03-27 15:32:00,48.0,29.0,29.78,NNW,338,6.0,12.0,48,0.00,,,0.00,,2013-03-27 19:32:00,
2013-03-27 15:42:00,48.0,29.0,29.78,NNW,338,6.0,12.0,48,0.00,,,0.00,,2013-03-27 19:42:00,
2013-03-27 15:52:00,47.0,29.0,29.78,NNW,333,5.0,21.0,50,0.00,,,0.00,,2013-03-27 19:52:00,
2013-03-27 16:02:00,49.0,29.0,29.78,West,281,6.0,12.0,45,0.00,,,0.00,,2013-03-27 20:02:00,
2013-03-27 16:12:00,49.0,29.0,29.78,West,281,6.0,12.0,45,0.00,,,0.00,,2013-03-27 20:12:00,
2013-03-27 16:22:00,48.0,29.0,29.78,WNW,291,6.0,14.0,48,0.00,,,0.00,,2013-03-27 20:22:00,
2013-03-27 16:32:00,48.0,29.0,29.78,NW,313,7.0,13.0,47,0.00,,,0.00,,2013-03-27 20:32:00,
2013-03-27 16:42:00,48.0,29.0,29.78,NW,313,7.0,13.0,47,0.00,,,0.00,,2013-03-27 20:42:00,
2013-03-27 16:52:00,48.0,29.0,29.78,NNW,342,4.0,11.0,47,0.00,,,0.00,,2013-03-27 20:52:00,
2013-03-27 17:02:00,48.0,28.0,29.78,NW,306,7.0,16.0,46,0.00,,,0.00,,2013-03-27 21:02:00,
2013-03-27 17:12:00,48.0,28.0,29.78,NW,306,7.0,16.0,46,0.00,,,0.00,,2013-03-27 21:12:00,
2013-03-27 17:22:00,46.0,30.0,29.79,NNW,340,6.0,11.0,54,0.00,,,0.00,,2013-03-27 21:22:00,
2013-03-27 17:32:00,45.0,31.0,29.80,NW,315,4.0,11.0,58,0.00,,,0.00,,2013-03-27 21:32:00,
2013-03-27 17:43:00,45.0,31.0,29.80,NW,315,4.0,11.0,58,0.00,,,0.00,,2013-03-27 21:43:00,
2013-03-27 17:52:00,45.0,30.0,29.80,NW,304,1.0,5.0,56,0.00,,,0.00,,2013-03-27 21:52:00,
2013-03-27 18:03:00,46.0,31.0,29.80,NW,320,4.0,9.0,55,0.00,,,0.00,,2013-03-27 22:03:00,
2013-03-27 18:12:00,46.0,31.0,29.80,NW,320,4.0,9.0,55,0.00,,,0.00,,2013-03-27 22:12:00,
2013-03-27 18:23:00,46.0,31.0,29.80,West,273,4.0,7.0,56,0.00,,,0.00,,2013-03-27 22:23:00,
2013-03-27 18:33:00,45.0,30.0,29.81,West,262,2.0,14.0,55,0.00,,,0.00,,2013-03-27 22:33:00,
2013-03-27 18:42:00,45.0,30.0,29.81,West,262,2.0,14.0,55,0.00,,,0.00,,2013-03-27 22:42:00,
2013-03-27 18:53:00,45.0,29.0,29.81,West,274,4.0,14.0,54,0.00,,,0.00,,2013-03-27 22:53:00,
2013-03-27 19:02:00,45.0,29.0,29.82,West,263,4.0,9.0,54,0.00,,,0.00,,2013-03-27 23:02:00,
2013-03-27 19:12:00,45.0,29.0,29.82,West,263,4.0,9.0,54,0.00,,,0.00,,2013-03-27 23:12:00,
2013-03-27 19:22:00,44.0,29.0,29.82,WNW,290,3.0,5.0,55,0.00,,,0.00,,2013-03-27 23:22:00,
2013-03-27 19:32:00,43.0,28.0,29.83,West,259,4.0,8.0,56,0.00,,,0.00,,2013-03-27 23:32:00,
2013-03-27 19:42:00,43.0,28.0,29.83,West,259,4.0,8.0,56,0.00,,,0.00,,2013-03-27 23:42:00,
2013-03-27 19:52:00,43.0,29.0,29.83,WSW,250,3.0,9.0,58,0.00,,,0.00,,2013-03-27 23:52:00,
2013-03-27 20:02:00,42.0,29.0,29.84,West,259,5.0,16.0,60,0.00,,,0.00,,2013-03-28 00:02:00,
2013-03-27 20:12:00,42.0,29.0,29.84,West,259,5.0,16.0,60,0.00,,,0.00,,2013-03-28 00:12:00,
2013-03-27 20:22:00,42.0,30.0,29.84,West,271,6.0,13.0,62,0.00,,,0.00,,2013-03-28 00:22:00,
2013-03-27 20:32:00,41.0,29.0,29.85,WNW,293,7.0,12.0,63,0.00,,,0.00,,2013-03-28 00:32:00,
2013-03-27 20:43:00,41.0,29.0,29.85,WNW,293,7.0,12.0,63,0.00,,,0.00,,2013-03-28 00:43:00,
2013-03-27 20:52:00,41.0,29.0,29.85,West,278,5.0,13.0,62,0.00,,,0.00,,2013-03-28 00:52:00,
2013-03-27 21:02:00,41.0,29.0,29.85,WNW,291,4.0,11.0,63,0.00,,,0.00,,2013-03-28 01:02:00,
2013-03-27 21:12:00,41.0,29.0,29.85,WNW,291,4.0,11.0,63,0.00,,,0.00,,2013-03-28 01:12:00,
2013-03-27 21:22:00,41.0,29.0,29.86,WNW,292,6.0,13.0,63,0.00,,,0.00,,2013-03-28 01:22:00,
2013-03-27 21:32:00,41.0,29.0,29.86,West,277,10.0,14.0,63,0.00,,,0.00,,2013-03-28 01:32:00,
2013-03-27 21:42:00,41.0,29.0,29.86,West,277,10.0,14.0,63,0.00,,,0.00,,2013-03-28 01:42:00,
2013-03-27 21:53:00,40.0,29.0,29.87,West,265,4.0,14.0,65,0.00,,,0.00,,2013-03-28 01:53:00,
2013-03-27 22:02:00,40.0,29.0,29.87,West,280,6.0,13.0,65,0.00,,,0.00,,2013-03-28 02:02:00,
2013-03-27 22:12:00,40.0,29.0,29.87,West,280,6.0,13.0,65,0.00,,,0.00,,2013-03-28 02:12:00,
2013-03-27 22:22:00,40.0,29.0,29.87,West,269,6.0,13.0,65,0.00,,,0.00,,2013-03-28 02:22:00,
2013-03-27 22:32:00,40.0,30.0,29.87,WNW,284,7.0,13.0,66,0.00,,,0.00,,2013-03-28 02:32:00,
2013-03-27 22:42:00,40.0,30.0,29.87,WNW,284,7.0,13.0,66,0.00,,,0.00,,2013-03-28 02:42:00,
2013-03-27 22:52:00,40.0,30.0,29.87,WNW,284,7.0,13.0,66,0.00,,,0.00,,2013-03-28 02:52:00,
2013-03-27 23:02:00,40.0,30.0,29.87,WNW,297,3.0,10.0,67,0.00,,,0.00,,2013-03-28 03:02:00,
2013-03-27 23:12:00,40.0,30.0,29.87,WNW,297,3.0,10.0,67,0.00,,,0.00,,2013-03-28 03:12:00,
2013-03-27 23:22:00,40.0,30.0,29.87,WNW,292,3.0,7.0,68,0.00,,,0.00,,2013-03-28 03:22:00,
2013-03-27 23:33:00,39.0,30.0,29.87,West,273,4.0,12.0,69,0.00,,,0.00,,2013-03-28 03:33:00,
2013-03-27 23:43:00,39.0,30.0,29.87,West,273,4.0,12.0,69,0.00,,,0.00,,2013-03-28 03:43:00,
2013-03-27 23:53:00,39.0,30.0,29.87,WNW,284,4.0,17.0,70,0.00,,,0.00,,2013-03-28 03:53:00,